ABW396 EBLG-UUEE

Flight info

Callsign ABW396
Flight time 2h 59m
Altitude 33000
Route LNO DCT BIGGE DCT ABGUS Z92 MAG Z20 SUBIX N858 GRUDA/N0475F350 N858 OTRIV DCT LAFAT/K0883F350 L29 BENIM M997 RATIN L999 AGLAN M864 DIPOP DIPOP3F
Aircraft B77L/H-SDE1E2E3FGHIJ2J3J4J5M1RWXY/LB1D1

Departure

Time 2026-04-30 18:33
Airport Liège Airport (EBLG)

Arrival

Time 2026-04-30 21:33
Airport Sheremetyevo International Airport (UUEE)
Time Latitude Longitude Altitude Speed Heading
2026-04-30 18:04 50.63808 5.45085 620 ft 0 kts 135°
2026-04-30 18:24 50.63845 5.45040 632 ft 4 kts 153°
2026-04-30 18:24 50.63870 5.45023 634 ft 4 kts 164°
2026-04-30 18:24 50.63888 5.45016 631 ft 1 kts 171°
2026-04-30 18:25 50.63891 5.45016 633 ft 0 kts 171°
2026-04-30 18:29 50.63827 5.44914 630 ft 9 kts 227°
2026-04-30 18:30 50.63751 5.44789 632 ft 9 kts 225°
2026-04-30 18:30 50.63590 5.44535 628 ft 22 kts 225°
2026-04-30 18:31 50.63498 5.44390 637 ft 18 kts 225°
2026-04-30 18:31 50.63289 5.44059 651 ft 27 kts 225°
2026-04-30 18:32 50.63242 5.43836 645 ft 12 kts
2026-04-30 18:32 50.63327 5.43844 646 ft 14 kts 345°
2026-04-30 18:32 50.63427 5.43913 649 ft 16 kts 45°
2026-04-30 18:33 50.63644 5.44260 635 ft 80 kts 45°
2026-04-30 18:33 50.65013 5.46427 736 ft 176 kts 49°
2026-04-30 18:33 50.65875 5.47778 1324 ft 176 kts 50°
2026-04-30 18:34 50.66751 5.49146 1897 ft 179 kts 50°
2026-04-30 18:34 50.68520 5.51998 3056 ft 194 kts 52°
2026-04-30 18:34 50.69506 5.53611 3418 ft 214 kts 51°
2026-04-30 18:35 50.70581 5.55333 3975 ft 225 kts 51°
2026-04-30 18:35 50.71728 5.57047 4651 ft 233 kts 39°
2026-04-30 18:35 50.73323 5.57840 5258 ft 253 kts
2026-04-30 18:36 50.76156 5.54804 6647 ft 264 kts 294°
2026-04-30 18:36 50.76594 5.51977 7299 ft 262 kts 267°
2026-04-30 18:36 50.75161 5.47078 8512 ft 251 kts 209°
2026-04-30 18:37 50.73564 5.46030 8955 ft 256 kts 182°
2026-04-30 18:37 50.71778 5.46366 9272 ft 265 kts 154°
2026-04-30 18:37 50.70243 5.47973 9889 ft 269 kts 131°
2026-04-30 18:37 50.69041 5.50274 10489 ft 276 kts 127°
2026-04-30 18:38 50.67816 5.52743 10774 ft 299 kts 127°
2026-04-30 18:38 50.66481 5.55439 10953 ft 324 kts 127°
2026-04-30 18:38 50.65037 5.58334 11189 ft 348 kts 128°
2026-04-30 18:38 50.63502 5.61376 11795 ft 359 kts 128°
2026-04-30 18:39 50.61926 5.64476 12523 ft 366 kts 128°
2026-04-30 18:39 50.60501 5.67789 13143 ft 369 kts 114°
2026-04-30 18:39 50.59995 5.70357 13575 ft 375 kts 99°
2026-04-30 18:39 50.59940 5.74463 14411 ft 378 kts 84°
2026-04-30 18:40 50.60918 5.79729 15267 ft 384 kts 68°
2026-04-30 18:40 50.62019 5.83609 15276 ft 390 kts 67°
2026-04-30 18:40 50.63162 5.87468 15287 ft 388 kts 66°
2026-04-30 18:40 50.64305 5.91297 15282 ft 385 kts 66°
2026-04-30 18:41 50.65053 5.93821 15285 ft 384 kts 67°
2026-04-30 18:41 50.66176 5.97643 15292 ft 384 kts 67°
2026-04-30 18:41 50.67288 6.01476 15289 ft 385 kts 67°
2026-04-30 18:41 50.68393 6.05318 15292 ft 385 kts 67°
2026-04-30 18:42 50.69488 6.09157 15291 ft 384 kts 67°
2026-04-30 18:42 50.71672 6.16858 15290 ft 384 kts 68°
2026-04-30 18:42 50.72759 6.20708 15287 ft 384 kts 68°
2026-04-30 18:45 50.83851 6.60390 20846 ft 412 kts 67°
2026-04-30 18:45 50.85006 6.64558 21468 ft 415 kts 67°
2026-04-30 18:45 50.86168 6.68763 22066 ft 419 kts 67°
2026-04-30 18:46 50.87340 6.73011 22645 ft 423 kts 67°
2026-04-30 18:46 50.88519 6.77291 23220 ft 427 kts 67°
2026-04-30 18:46 50.89709 6.81621 23810 ft 430 kts 67°
2026-04-30 18:46 50.90905 6.85977 24272 ft 434 kts 67°
2026-04-30 18:47 50.92111 6.90380 24306 ft 436 kts 67°
2026-04-30 18:47 50.93317 6.94790 24328 ft 435 kts 67°
2026-04-30 18:47 50.94521 6.99199 24680 ft 438 kts 67°
2026-04-30 18:47 50.95731 7.03641 25217 ft 439 kts 67°
2026-04-30 18:48 50.96944 7.08105 25735 ft 441 kts 67°
2026-04-30 18:48 50.98144 7.12530 26217 ft 444 kts 67°
2026-04-30 18:48 50.99368 7.17046 26671 ft 447 kts 67°
2026-04-30 18:48 51.00599 7.21601 27110 ft 451 kts 67°
2026-04-30 18:49 51.01837 7.26193 27572 ft 454 kts 67°
2026-04-30 18:49 51.03082 7.30817 28025 ft 457 kts 67°
2026-04-30 18:49 51.04333 7.35472 28469 ft 459 kts 67°
2026-04-30 18:49 51.05588 7.40153 28887 ft 462 kts 67°
2026-04-30 18:50 51.06852 7.44877 29297 ft 465 kts 67°
2026-04-30 18:50 51.08119 7.49621 29672 ft 468 kts 67°
2026-04-30 18:50 51.09391 7.54396 30061 ft 471 kts 67°
2026-04-30 18:50 51.10674 7.59217 30307 ft 476 kts 67°
2026-04-30 18:51 51.11966 7.64082 30346 ft 478 kts 67°
2026-04-30 18:51 51.14535 7.73799 30346 ft 473 kts 67°
2026-04-30 18:52 51.17058 7.83379 30412 ft 474 kts 67°
2026-04-30 18:52 51.18333 7.88236 30555 ft 476 kts 67°
2026-04-30 18:52 51.19604 7.93088 30827 ft 475 kts 67°
2026-04-30 18:52 51.20874 7.97947 31163 ft 472 kts 67°
2026-04-30 18:53 51.22138 8.02789 31310 ft 474 kts 67°
2026-04-30 18:53 51.24629 8.12372 31386 ft 464 kts 67°
2026-04-30 18:54 51.27075 8.21816 31370 ft 457 kts 67°
2026-04-30 18:54 51.29472 8.31109 31378 ft 454 kts 67°
2026-04-30 18:55 51.31885 8.40501 31393 ft 462 kts 67°
2026-04-30 18:55 51.35280 8.54984 31383 ft 463 kts 70°
2026-04-30 18:56 51.38379 8.69621 31394 ft 462 kts 70°
2026-04-30 18:57 51.41511 8.84188 31388 ft 460 kts 70°
2026-04-30 18:57 51.43597 8.93866 31396 ft 459 kts 70°
2026-04-30 18:58 51.46693 9.08315 31401 ft 459 kts 70°
2026-04-30 18:59 51.49786 9.22865 31419 ft 460 kts 70°
2026-04-30 19:00 51.53896 9.42365 31403 ft 462 kts 70°
2026-04-30 19:01 51.57988 9.61971 31412 ft 463 kts 70°
2026-04-30 19:02 51.61019 9.76618 31428 ft 461 kts 70°
2026-04-30 19:03 51.65023 9.96134 31429 ft 457 kts 70°
2026-04-30 19:04 51.68975 10.15582 31440 ft 457 kts 70°
2026-04-30 19:05 51.72881 10.35001 31449 ft 457 kts 70°
2026-04-30 19:06 51.76770 10.54527 31447 ft 457 kts 70°
2026-04-30 19:06 51.79663 10.69180 31452 ft 457 kts 70°
2026-04-30 19:07 51.82541 10.83870 31450 ft 457 kts 70°
2026-04-30 19:08 51.86328 11.03366 31445 ft 455 kts 70°
2026-04-30 19:09 51.88993 11.18108 31436 ft 455 kts 72°
2026-04-30 19:09 51.90719 11.27950 31432 ft 454 kts 72°
2026-04-30 19:10 51.94100 11.47604 31424 ft 452 kts 72°
2026-04-30 19:11 51.96597 11.62236 31425 ft 450 kts 72°
2026-04-30 19:12 51.98258 11.72031 31433 ft 451 kts 72°
2026-04-30 19:12 51.99908 11.81888 31680 ft 456 kts 72°
2026-04-30 19:13 52.01404 11.91874 32536 ft 454 kts 73°
2026-04-30 19:13 52.02849 12.01812 33390 ft 451 kts 73°
2026-04-30 19:13 52.03574 12.06758 33763 ft 451 kts 73°
2026-04-30 19:14 52.04294 12.11653 34108 ft 451 kts 73°
2026-04-30 19:14 52.05021 12.16595 34476 ft 450 kts 73°
2026-04-30 19:14 52.05745 12.21533 34793 ft 449 kts 73°
2026-04-30 19:14 52.06466 12.26460 35105 ft 448 kts 73°
2026-04-30 19:15 52.07184 12.31392 35355 ft 448 kts 73°
2026-04-30 19:15 52.09354 12.46208 35426 ft 446 kts 73°
2026-04-30 19:16 52.10773 12.55902 35418 ft 443 kts 73°
2026-04-30 19:17 52.12898 12.70564 35430 ft 444 kts 73°
2026-04-30 19:17 52.14964 12.85300 35423 ft 446 kts 73°
2026-04-30 19:18 52.17015 13.00009 35433 ft 446 kts 73°
2026-04-30 19:19 52.18384 13.09848 35426 ft 445 kts 73°
2026-04-30 19:19 52.20420 13.24591 35422 ft 444 kts 73°
2026-04-30 19:20 52.21763 13.34401 35420 ft 443 kts 73°
2026-04-30 19:21 52.23748 13.49022 35432 ft 442 kts 73°
2026-04-30 19:22 52.26372 13.68568 35419 ft 440 kts 73°
2026-04-30 19:23 52.30252 13.97769 35431 ft 439 kts 73°
2026-04-30 19:24 52.32170 14.12411 35416 ft 439 kts 73°
2026-04-30 19:25 52.35264 14.36753 35418 ft 438 kts 73°
2026-04-30 19:26 52.37946 14.56135 35421 ft 433 kts 66°
2026-04-30 19:27 52.41761 14.69336 35421 ft 428 kts 56°
2026-04-30 19:28 52.46321 14.81960 35413 ft 430 kts 56°
2026-04-30 19:29 52.52373 14.98946 35420 ft 432 kts 57°
2026-04-30 19:30 52.58379 15.15991 35436 ft 433 kts 57°
2026-04-30 19:31 52.64367 15.33102 35413 ft 430 kts 57°
2026-04-30 19:31 52.68794 15.45826 35411 ft 428 kts 57°
2026-04-30 19:32 52.71738 15.54325 35411 ft 426 kts 57°
2026-04-30 19:32 52.74677 15.62834 35404 ft 427 kts 57°
2026-04-30 19:33 52.77609 15.71355 35414 ft 427 kts 57°
2026-04-30 19:33 52.80525 15.79855 35412 ft 429 kts 57°
2026-04-30 19:34 52.83144 15.88753 35421 ft 432 kts 63°
2026-04-30 19:35 52.86595 16.02499 35410 ft 430 kts 63°
2026-04-30 19:35 52.88894 16.11630 35408 ft 429 kts 63°
2026-04-30 19:36 52.91173 16.20687 35398 ft 428 kts 63°
2026-04-30 19:36 52.94599 16.34356 35405 ft 428 kts 63°
2026-04-30 19:37 52.96873 16.43477 35438 ft 428 kts 63°
2026-04-30 19:37 52.99142 16.52619 35408 ft 428 kts 63°
2026-04-30 19:38 53.01382 16.61682 35398 ft 427 kts 64°
2026-04-30 19:38 53.03629 16.70807 35398 ft 426 kts 64°
2026-04-30 19:39 53.05861 16.79916 35393 ft 426 kts 64°
2026-04-30 19:39 53.08088 16.89033 35401 ft 425 kts 64°
2026-04-30 19:40 53.10293 16.98096 35392 ft 426 kts 64°
2026-04-30 19:40 53.12507 17.07243 35431 ft 426 kts 64°
2026-04-30 19:41 53.14717 17.16410 35403 ft 426 kts 64°
2026-04-30 19:41 53.16914 17.25564 35385 ft 425 kts 64°
2026-04-30 19:42 53.19104 17.34724 35389 ft 424 kts 64°
2026-04-30 19:42 53.21264 17.43801 35386 ft 424 kts 64°
2026-04-30 19:43 53.23430 17.52938 35383 ft 423 kts 64°
2026-04-30 19:44 53.26661 17.66637 35383 ft 424 kts 64°
2026-04-30 19:44 53.28798 17.75747 35371 ft 424 kts 64°
2026-04-30 19:45 53.30939 17.84919 35375 ft 424 kts 64°
2026-04-30 19:45 53.33075 17.94102 35375 ft 423 kts 64°
2026-04-30 19:46 53.35200 18.03279 35373 ft 423 kts 64°
2026-04-30 19:46 53.37303 18.12395 35367 ft 423 kts 64°
2026-04-30 19:47 53.39409 18.21592 35370 ft 423 kts 64°
2026-04-30 19:47 53.41500 18.30807 35370 ft 423 kts 64°
2026-04-30 19:48 53.43588 18.40043 35373 ft 424 kts 64°
2026-04-30 19:48 53.45668 18.49280 35366 ft 423 kts 64°
2026-04-30 19:49 53.47739 18.58519 35364 ft 423 kts 64°
2026-04-30 19:49 53.50818 18.72316 35359 ft 422 kts 64°
2026-04-30 19:50 53.52849 18.81572 35355 ft 423 kts 65°
2026-04-30 19:50 53.54763 18.90920 35360 ft 423 kts 66°
2026-04-30 19:51 53.56655 19.00301 35389 ft 423 kts 65°
2026-04-30 19:51 53.58552 19.09686 35365 ft 423 kts 65°
2026-04-30 19:52 53.60433 19.19001 35359 ft 423 kts 65°
2026-04-30 19:52 53.62320 19.28381 35358 ft 423 kts 65°
2026-04-30 19:53 53.64196 19.37751 35358 ft 422 kts 65°
2026-04-30 19:53 53.66065 19.47129 35358 ft 422 kts 66°
2026-04-30 19:54 53.67925 19.56509 35350 ft 422 kts 66°
2026-04-30 19:54 53.69764 19.65828 35360 ft 422 kts 65°
2026-04-30 19:55 53.71611 19.75226 35354 ft 421 kts 65°
2026-04-30 19:55 53.73441 19.84624 35350 ft 421 kts 66°
2026-04-30 19:56 53.75257 19.94026 35354 ft 420 kts 66°
2026-04-30 19:56 53.77064 20.03417 35349 ft 420 kts 66°
2026-04-30 19:57 53.78852 20.12751 35353 ft 420 kts 66°
2026-04-30 19:57 53.80644 20.22152 35351 ft 420 kts 66°
2026-04-30 19:58 53.82430 20.31568 35361 ft 421 kts 66°
2026-04-30 19:58 53.84209 20.40994 35351 ft 420 kts 66°
2026-04-30 19:59 53.85981 20.50424 35347 ft 420 kts 66°
2026-04-30 20:00 53.88613 20.64560 35340 ft 419 kts 66°
2026-04-30 20:00 53.90344 20.73918 35343 ft 419 kts 66°
2026-04-30 20:01 53.92944 20.88051 35350 ft 419 kts 66°
2026-04-30 20:01 53.94670 20.97497 35345 ft 419 kts 66°
2026-04-30 20:02 53.97247 21.11685 35352 ft 420 kts 66°
2026-04-30 20:03 53.99804 21.25869 35347 ft 421 kts 66°
2026-04-30 20:03 54.01521 21.35389 35346 ft 421 kts 66°
2026-04-30 20:04 54.03238 21.44919 35349 ft 421 kts 66°
2026-04-30 20:05 54.05797 21.59233 35388 ft 422 kts 66°
2026-04-30 20:05 54.08337 21.73562 35347 ft 420 kts 66°
2026-04-30 20:06 54.10003 21.83021 35344 ft 419 kts 66°
2026-04-30 20:06 54.11668 21.92518 35348 ft 418 kts 66°
2026-04-30 20:07 54.13320 22.01997 35346 ft 417 kts 66°
2026-04-30 20:08 54.15782 22.16202 35349 ft 416 kts 66°
2026-04-30 20:08 54.17488 22.25622 35400 ft 414 kts 64°
2026-04-30 20:09 54.19387 22.34835 35349 ft 414 kts 64°
2026-04-30 20:09 54.22260 22.48754 35346 ft 414 kts 64°
2026-04-30 20:10 54.25073 22.62712 35349 ft 414 kts 64°
2026-04-30 20:11 54.27859 22.76703 35349 ft 414 kts 64°
2026-04-30 20:11 54.29694 22.85971 35350 ft 414 kts 64°
2026-04-30 20:12 54.32454 23.00002 35363 ft 415 kts 64°
2026-04-30 20:13 54.34288 23.09378 35355 ft 415 kts 64°
2026-04-30 20:13 54.36112 23.18750 35344 ft 414 kts 64°
2026-04-30 20:14 54.37926 23.28112 35335 ft 413 kts 64°
2026-04-30 20:14 54.39716 23.37403 35336 ft 413 kts 64°
2026-04-30 20:15 54.41510 23.46752 35342 ft 412 kts 64°
2026-04-30 20:15 54.43297 23.56109 35335 ft 412 kts 65°
2026-04-30 20:16 54.45074 23.65466 35394 ft 412 kts 64°
2026-04-30 20:16 54.46836 23.74784 35338 ft 413 kts 65°
2026-04-30 20:17 54.48603 23.84183 35338 ft 413 kts 64°
2026-04-30 20:17 54.50361 23.93574 35337 ft 412 kts 64°
2026-04-30 20:18 54.52109 24.02962 35330 ft 412 kts 65°
2026-04-30 20:18 54.53837 24.12290 35326 ft 412 kts 65°
2026-04-30 20:19 54.55568 24.21678 35329 ft 411 kts 65°
2026-04-30 20:19 54.57293 24.31084 35322 ft 412 kts 65°
2026-04-30 20:20 54.59013 24.40502 35334 ft 412 kts 65°
2026-04-30 20:20 54.60725 24.49931 35321 ft 412 kts 65°
2026-04-30 20:21 54.62419 24.59308 35316 ft 412 kts 65°
2026-04-30 20:21 54.64116 24.68758 35317 ft 412 kts 65°
2026-04-30 20:22 54.65808 24.78218 35309 ft 412 kts 65°
2026-04-30 20:22 54.67491 24.87682 35317 ft 412 kts 65°
2026-04-30 20:23 54.69156 24.97090 35314 ft 412 kts 65°
2026-04-30 20:23 54.70825 25.06573 35317 ft 412 kts 65°
2026-04-30 20:24 54.72490 25.16078 35325 ft 414 kts 65°
2026-04-30 20:24 54.73871 25.24007 35318 ft 414 kts 65°
2026-04-30 20:25 54.76620 25.39892 35297 ft 414 kts 65°
2026-04-30 20:26 54.78807 25.52632 35296 ft 415 kts 65°
2026-04-30 20:26 54.81524 25.68572 35293 ft 415 kts 65°
2026-04-30 20:27 54.84354 25.86287 35286 ft 420 kts 69°
2026-04-30 20:28 54.87249 26.07655 35284 ft 421 kts 68°
2026-04-30 20:30 54.90416 26.30745 35283 ft 422 kts 69°
2026-04-30 20:31 54.94431 26.60563 35296 ft 424 kts 69°
2026-04-30 20:32 54.97746 26.85644 35285 ft 428 kts 69°
2026-04-30 20:33 54.99726 27.00837 35273 ft 429 kts 69°
2026-04-30 20:34 55.01678 27.15979 35272 ft 429 kts 70°
2026-04-30 20:35 55.03625 27.31225 35275 ft 431 kts 70°
2026-04-30 20:35 55.05561 27.46578 35272 ft 434 kts 71°
2026-04-30 20:36 55.06815 27.56813 35277 ft 435 kts 71°
2026-04-30 20:37 55.08694 27.72321 35264 ft 436 kts 71°
2026-04-30 20:37 55.09940 27.82677 35264 ft 436 kts 71°
2026-04-30 20:38 55.11178 27.93038 35264 ft 435 kts 71°
2026-04-30 20:38 55.12397 28.03320 35260 ft 435 kts 71°
2026-04-30 20:39 55.14221 28.18840 35258 ft 434 kts 71°
2026-04-30 20:40 55.15401 28.34662 35260 ft 440 kts 76°
2026-04-30 20:40 55.16014 28.45226 35260 ft 439 kts 76°
2026-04-30 20:41 55.16945 28.61161 35276 ft 439 kts 76°
2026-04-30 20:41 55.17564 28.71818 35264 ft 441 kts 77°
2026-04-30 20:42 55.18173 28.82460 35256 ft 443 kts 77°
2026-04-30 20:43 55.19077 28.98597 35249 ft 445 kts 77°
2026-04-30 20:43 55.19670 29.09397 35253 ft 446 kts 77°
2026-04-30 20:44 55.20544 29.25640 35243 ft 447 kts 77°
2026-04-30 20:45 55.21674 29.47289 35245 ft 449 kts 78°
2026-04-30 20:45 55.22228 29.58179 35243 ft 449 kts 78°
2026-04-30 20:46 55.23308 29.79998 35242 ft 450 kts 78°
2026-04-30 20:47 55.24089 29.96294 35241 ft 449 kts 78°
2026-04-30 20:48 55.24854 30.12708 35232 ft 451 kts 79°
2026-04-30 20:48 55.25353 30.23691 35238 ft 452 kts 79°
2026-04-30 20:49 55.25842 30.34690 35232 ft 453 kts 79°
2026-04-30 20:50 55.26557 30.51147 35240 ft 454 kts 79°
2026-04-30 20:50 55.27023 30.62184 35245 ft 454 kts 79°
2026-04-30 20:51 55.27482 30.73238 35242 ft 455 kts 80°
2026-04-30 20:51 55.28711 30.89634 35237 ft 448 kts 70°
2026-04-30 20:52 55.30599 30.99893 35237 ft 444 kts 66°
2026-04-30 20:53 55.33596 31.15319 35234 ft 446 kts 66°
2026-04-30 20:53 55.35560 31.25654 35231 ft 446 kts 66°
2026-04-30 20:54 55.39093 31.44471 35262 ft 446 kts 66°
2026-04-30 20:55 55.44873 31.75746 35251 ft 449 kts 67°
2026-04-30 20:55 55.48703 31.96752 35239 ft 451 kts 67°
2026-04-30 20:56 55.54394 32.28416 35243 ft 452 kts 68°
2026-04-30 20:57 55.58610 32.52227 35242 ft 456 kts 68°
2026-04-30 20:57 55.60489 32.62943 35250 ft 457 kts 68°
2026-04-30 20:58 55.63296 32.79071 35250 ft 458 kts 68°
2026-04-30 20:58 55.65148 32.89796 35251 ft 459 kts 69°
2026-04-30 20:59 55.67929 33.06016 35245 ft 459 kts 69°
2026-04-30 21:00 55.71613 33.27720 35254 ft 461 kts 69°
2026-04-30 21:01 55.74343 33.44036 35246 ft 463 kts 69°
2026-04-30 21:02 55.77072 33.60501 35253 ft 464 kts 69°
2026-04-30 21:02 55.78883 33.71509 35252 ft 464 kts 69°
2026-04-30 21:03 55.80685 33.82535 35242 ft 465 kts 70°
2026-04-30 21:03 55.82465 33.93494 35249 ft 464 kts 70°
2026-04-30 21:04 55.84258 34.04590 34559 ft 476 kts 70°
2026-04-30 21:04 55.85169 34.10255 33803 ft 474 kts 70°
2026-04-30 21:04 55.86908 34.21183 32364 ft 440 kts 69°
2026-04-30 21:05 55.87725 34.26334 31806 ft 424 kts 69°
2026-04-30 21:05 55.88511 34.31352 31336 ft 420 kts 70°
2026-04-30 21:05 55.89093 34.36474 30828 ft 425 kts 76°
2026-04-30 21:05 55.89389 34.41708 30348 ft 436 kts 82°
2026-04-30 21:06 55.89488 34.47129 29736 ft 439 kts 82°
2026-04-30 21:06 55.89567 34.52558 29163 ft 436 kts 82°
2026-04-30 21:06 55.89644 34.57919 28645 ft 430 kts 82°
2026-04-30 21:06 55.89725 34.63215 28114 ft 425 kts 82°
2026-04-30 21:07 55.89812 34.68446 27625 ft 420 kts 82°
2026-04-30 21:07 55.89900 34.73615 27112 ft 416 kts 82°
2026-04-30 21:07 55.89988 34.78741 26627 ft 412 kts 82°
2026-04-30 21:07 55.90075 34.83817 26160 ft 408 kts 82°
2026-04-30 21:08 55.90158 34.88852 25652 ft 405 kts 82°
2026-04-30 21:08 55.90239 34.93786 25185 ft 402 kts 82°
2026-04-30 21:08 55.90316 34.98754 24705 ft 400 kts 82°
2026-04-30 21:08 55.90390 35.03687 24238 ft 397 kts 82°
2026-04-30 21:09 55.90463 35.08591 23762 ft 394 kts 82°
2026-04-30 21:09 55.90535 35.13458 23217 ft 392 kts 83°
2026-04-30 21:09 55.90606 35.18294 22748 ft 388 kts 83°
2026-04-30 21:09 55.90675 35.23076 22280 ft 385 kts 83°
2026-04-30 21:10 55.90741 35.27820 21831 ft 381 kts 83°
2026-04-30 21:10 55.90804 35.32461 21382 ft 378 kts 83°
2026-04-30 21:10 55.90865 35.37133 20942 ft 375 kts 83°
2026-04-30 21:10 55.90925 35.41765 20481 ft 373 kts 83°
2026-04-30 21:11 55.90984 35.46369 20048 ft 370 kts 83°
2026-04-30 21:11 55.91040 35.50941 19613 ft 368 kts 84°
2026-04-30 21:11 55.91094 35.55482 19187 ft 366 kts 84°
2026-04-30 21:11 55.91146 35.59999 18759 ft 364 kts 84°
2026-04-30 21:12 55.91196 35.64496 18287 ft 362 kts 84°
2026-04-30 21:12 55.91243 35.68898 17833 ft 359 kts 84°
2026-04-30 21:12 55.91288 35.73311 17559 ft 351 kts 84°
2026-04-30 21:12 55.91326 35.77495 17390 ft 324 kts 84°
2026-04-30 21:13 55.91360 35.81387 17295 ft 308 kts 84°
2026-04-30 21:13 55.91403 35.85167 17112 ft 302 kts 82°
2026-04-30 21:13 55.91621 35.88956 16798 ft 315 kts 77°
2026-04-30 21:13 55.91958 35.92888 16443 ft 325 kts 77°
2026-04-30 21:14 55.92300 35.96863 16080 ft 324 kts 77°
2026-04-30 21:14 55.92622 36.00815 15708 ft 321 kts 77°
2026-04-30 21:14 55.92928 36.04734 15368 ft 316 kts 77°
2026-04-30 21:14 55.93446 36.08531 14871 ft 315 kts 65°
2026-04-30 21:15 55.94370 36.12066 14477 ft 314 kts 60°
2026-04-30 21:15 55.95336 36.15563 14172 ft 313 kts 60°
2026-04-30 21:15 55.96275 36.18997 13844 ft 311 kts 61°
2026-04-30 21:15 55.97217 36.22465 13507 ft 310 kts 61°
2026-04-30 21:16 55.98151 36.25920 13149 ft 309 kts 61°
2026-04-30 21:16 55.99081 36.29372 12822 ft 308 kts 62°
2026-04-30 21:16 56.00003 36.32809 12491 ft 306 kts 62°
2026-04-30 21:16 56.00921 36.36240 12175 ft 305 kts 62°
2026-04-30 21:17 56.01835 36.39660 11833 ft 305 kts 62°
2026-04-30 21:17 56.02746 36.43079 11509 ft 304 kts 62°
2026-04-30 21:17 56.03651 36.46485 11192 ft 303 kts 62°
2026-04-30 21:17 56.04554 36.49883 10887 ft 302 kts 62°
2026-04-30 21:18 56.05439 36.53221 10597 ft 300 kts 63°
2026-04-30 21:18 56.06331 36.56593 10299 ft 299 kts 63°
2026-04-30 21:18 56.07219 36.59954 9996 ft 298 kts 63°
2026-04-30 21:18 56.08096 36.63280 9794 ft 288 kts 63°
2026-04-30 21:19 56.08925 36.66435 9597 ft 273 kts 63°
2026-04-30 21:19 56.09719 36.69455 9281 ft 264 kts 63°
2026-04-30 21:19 56.10480 36.72411 8843 ft 260 kts 68°
2026-04-30 21:19 56.10805 36.75588 8310 ft 261 kts 84°
2026-04-30 21:20 56.10895 36.78828 7823 ft 263 kts 85°
2026-04-30 21:20 56.10967 36.82055 7595 ft 261 kts 85°
2026-04-30 21:20 56.11074 36.85276 7391 ft 258 kts 83°
2026-04-30 21:20 56.11240 36.88464 7149 ft 257 kts 82°
2026-04-30 21:21 56.11421 36.91609 7060 ft 251 kts 81°
2026-04-30 21:21 56.11656 36.94711 7009 ft 253 kts 79°
2026-04-30 21:21 56.12254 37.00976 7006 ft 257 kts 78°
2026-04-30 21:22 56.12565 37.04133 7001 ft 257 kts 78°
2026-04-30 21:22 56.13500 37.13529 6563 ft 250 kts 78°
2026-04-30 21:23 56.13813 37.16542 5967 ft 250 kts 77°
2026-04-30 21:23 56.14172 37.19591 5353 ft 251 kts 76°
2026-04-30 21:23 56.14911 37.25668 4247 ft 248 kts 76°
2026-04-30 21:24 56.15205 37.28750 4054 ft 256 kts 86°
2026-04-30 21:24 56.15044 37.31898 3993 ft 253 kts 107°
2026-04-30 21:24 56.14450 37.34846 4003 ft 249 kts 109°
2026-04-30 21:24 56.13897 37.37720 3986 ft 239 kts 108°
2026-04-30 21:25 56.12895 37.43101 3985 ft 221 kts 107°
2026-04-30 21:25 56.12498 37.45756 3982 ft 220 kts 96°
2026-04-30 21:25 56.12358 37.48448 4039 ft 221 kts 92°
2026-04-30 21:26 56.12170 37.54024 3980 ft 219 kts 92°
2026-04-30 21:26 56.12083 37.56722 3986 ft 216 kts 92°
2026-04-30 21:27 56.11912 37.62152 4002 ft 221 kts 92°
2026-04-30 21:27 56.11654 37.64867 3984 ft 223 kts 114°
2026-04-30 21:27 56.10861 37.67232 3964 ft 220 kts 123°
2026-04-30 21:28 56.08897 37.71188 3203 ft 221 kts 159°
2026-04-30 21:28 56.07413 37.71736 3089 ft 215 kts 173°
2026-04-30 21:28 56.04592 37.72442 2974 ft 196 kts 182°
2026-04-30 21:29 56.03336 37.71672 2988 ft 192 kts 220°
2026-04-30 21:29 56.00800 37.66407 2745 ft 174 kts 238°
2026-04-30 21:30 56.00287 37.62454 2555 ft 157 kts 255°
2026-04-30 21:31 55.99467 37.56980 2208 ft 153 kts 256°
2026-04-30 21:31 55.98912 37.53373 1751 ft 149 kts 255°
2026-04-30 21:32 55.98380 37.49784 1335 ft 150 kts 255°
2026-04-30 21:32 55.98112 37.47993 1110 ft 149 kts 255°
2026-04-30 21:32 55.97845 37.46211 888 ft 148 kts 255°
2026-04-30 21:32 55.97583 37.44437 678 ft 148 kts 254°
2026-04-30 21:33 55.97338 37.42814 647 ft 123 kts 255°
2026-04-30 21:33 55.97194 37.41333 645 ft 13 kts 343°
2026-04-30 21:33 55.97278 37.41293 648 ft 13 kts 345°
2026-04-30 21:34 55.97364 37.41252 647 ft 14 kts 345°
2026-04-30 21:34 55.97524 37.41203 649 ft 12 kts 36°
2026-04-30 21:34 55.97557 37.41352 645 ft 15 kts 76°
2026-04-30 21:35 55.97579 37.41481 646 ft 11 kts 73°
2026-04-30 21:35 55.97602 37.41633 643 ft 14 kts 75°
2026-04-30 21:35 55.97631 37.41827 644 ft 18 kts 75°
2026-04-30 21:35 55.97665 37.42056 646 ft 21 kts 75°
2026-04-30 21:36 55.97701 37.42300 645 ft 15 kts 76°
2026-04-30 21:36 55.97730 37.42495 647 ft 18 kts 75°
2026-04-30 21:37 55.97930 37.42702 646 ft 15 kts 346°
2026-04-30 21:37 55.98029 37.42696 649 ft 14 kts 20°
2026-04-30 21:37 55.98056 37.42728 650 ft 2 kts 41°
2026-04-30 21:37 55.98096 37.42733 649 ft 9 kts 343°
2026-04-30 21:38 55.98133 37.42715 646 ft 6 kts 345°
2026-04-30 21:38 55.98155 37.42704 647 ft 0 kts 345°
2026-04-30 21:39 55.98179 37.42822 648 ft 0 kts 345°